Terminal Aerodrome Forecast
Issued by NWS New Orleans/Baton Rouge, LA

Home | Current Version | Previous Version | Text Only | Print | Product List | Glossary On
Versions: 1 2 3 4 5 6 7 8 9 10 11 12 13 14 15 16 17 18 19 20 21
802
FTUS44 KLIX 241307 AAA
TAFBTR
TAF AMD
KBTR 241307Z 2413/2512 14004KT 1/4SM FG VV002
     FM241400 15005KT 1 1/2SM BR OVC004
     FM241500 18011KT P6SM SCT010 BKN040
     FM250300 24007KT P6SM OVC010
     FM250700 31008KT P6SM BKN040=

USA.gov is the U.S. government's official web portal to all federal, state and local government web resources and services.